[[{"header":{"parameterUnit":"m.s-1","parameterCategory":1,"la1":30.2991,"la2":30.254,"lo1":-89.0895,"lo2":-89.0444,"dy":0.0017,"dx":0.0017,"nx":28,"ny":28,"refTime":"2025-01-17T09:00:00:Z","depth":0,"parameterNumber":2,"parameterNumberName":"U-component_of_WINDS"},"data":[0,0,0,0,0,0,0,0,0,0,0,0,0,0,0,0,0,0,0,0,0,0,0,0,0,0,0,0,0,0,0,0,0,0,0,0,0,0,0,0,0,0,0,0,0,0,0,0,0,0,0,0,0,0,0,0,0,0,-4.0962,-4.0964,0,-4.1102,-4.1103,-4.1105,-4.1084,-4.1081,-4.1079,-4.1077,-4.1219,-4.1225,-4.1231,0,0,0,0,0,0,0,0,0,0,0,0,0,-4.068,-4.0686,-4.0962,-4.0964,-4.0966,-4.1101,-4.1103,-4.1105,-4.1084,-4.1081,-4.1078,-4.1076,-4.1217,-4.1224,-4.1232,0,0,0,0,0,0,0,0,0,0,0,0,0,-4.081,-4.0687,-4.0962,-4.0971,-4.0974,-4.1101,-4.1103,-4.1106,-4.1085,-4.1081,-4.1078,-4.1074,-4.1215,-4.1224,-4.1233,-4.1359,0,0,-4.126,-4.1264,0,0,0,0,0,0,0,0,-4.0802,-4.082,-4.0968,-4.0971,-4.0974,-4.1072,-4.1056,-4.1191,-4.1086,-4.1043,-4.1077,-4.1072,-4.1173,-4.1185,-4.1219,-4.1366,-4.1372,-4.1261,-4.1266,-4.127,-4.1273,0,0,0,0,0,0,0,-4.0793,-4.0814,-4.1017,-4.0971,-4.0974,-4.097,-4.0984,-4.1082,-4.1126,-4.1046,-4.1045,-4.1062,-4.1174,-4.121,-4.1222,-4.1374,-4.1261,-4.1269,-4.1274,-4.1278,-4.1634,-4.1638,0,0,0,0,0,0,-4.0782,-4.0806,-4.1013,-4.1021,-4.0878,-4.0978,-4.0994,-4.1044,-4.1125,-4.1134,-4.1064,-4.106,-4.1197,-4.1212,-4.1227,-4.1381,-4.127,-4.1279,-4.1284,-4.163,-4.1635,-4.1639,0,0,0,0,0,0,-4.0776,-4.08,-4.1007,-4.0914,-4.094,-4.0986,-4.1043,-4.1048,-4.1085,-4.1139,-4.1147,-4.1094,-4.1195,-4.1215,-4.1327,-4.1386,-4.1283,-4.1291,-4.1625,-4.1631,-4.1637,-4.169,0,0,0,0,0,0,-4.0768,-4.0798,-4.0846,-4.0915,-4.0945,-4.1104,-4.1046,-4.1054,-4.1101,-4.1096,-4.1168,-4.1177,-4.1193,-4.1314,-4.1336,-4.1396,-4.1298,-4.162,-4.1628,-4.1635,-4.1683,-4.1697,-4.1709,0,0,0,0,0,-4.0758,-4.0855,-4.0848,-4.0873,-4.1005,-4.1107,-4.1124,-4.1142,-4.1105,-4.1154,-4.1189,-4.1174,-4.1377,-4.1325,-4.135,-4.1414,-4.1616,-4.1625,-4.1634,-4.1677,-4.1694,-4.1709,0,0,0,0,0,0,-4.079,-4.0864,-4.0857,-4.098,-4.1038,-4.1103,-4.1165,-4.1159,-4.1228,-4.1221,-4.124,-4.1256,-4.137,-4.1404,-4.1345,-4.1542,-4.1491,-4.1506,-4.1515,-4.1532,-4.1545,-4.1533,-4.1305,0,0,0,0,0,-4.0812,-4.0888,-4.0948,-4.105,-4.108,-4.1118,-4.1163,-4.1172,-4.1232,-4.1256,-4.13,-4.1359,-4.1436,-4.1486,-4.156,-4.1689,-4.1705,-4.1746,-4.1759,-4.1769,-4.1781,-4.1853,-4.1872,-4.1669,-4.1669,-4.1669,0,0,-4.0856,-4.0906,-4.0953,-4.1058,-4.1104,-4.1183,-4.1138,-4.1223,-4.1283,-4.1269,-4.1378,-4.1412,-4.148,-4.1602,-4.1657,-4.1633,-4.1841,-4.1781,-4.1789,-4.1795,-4.1864,-4.1883,-4.19,-4.1675,-4.1674,-4.1673,0,0,-4.0978,-4.1023,-4.1114,-4.1162,-4.1232,-4.1257,-4.1279,-4.1348,-4.137,-4.148,-4.1472,-4.1544,-4.1676,-4.1725,-4.1767,-4.1913,-4.1902,-4.1937,-4.2003,-4.2073,-4.2089,-4.2104,-4.2155,-4.2174,-4.1948,-4.1949,-4.1949,0,-4.1024,-4.1143,-4.1161,-4.1248,-4.1295,-4.1289,-4.1381,-4.1427,-4.1518,-4.1551,-4.1523,-4.1691,-4.1736,-4.187,-4.1905,-4.194,-4.1966,-4.1927,-4.2086,-4.21,-4.2114,-4.2163,-4.2183,-4.1952,-4.1952,-4.1951,-4.1951,0,-4.1197,-4.128,-4.1345,-4.1433,-4.1488,-4.1578,-4.1611,-4.1665,-4.167,-4.1699,-4.1812,-4.1867,-4.1952,-4.1985,-4.1991,-4.2121,-4.2104,-4.2081,-4.203,-4.2136,-4.2183,-4.2202,-4.1957,-4.1956,-4.1955,-4.1954,0,0,-4.1339,-4.144,-4.1463,-4.1504,-4.1583,-4.1648,-4.1739,-4.1823,-4.1869,-4.1934,-4.201,-4.2124,-4.2104,-4.2153,-4.2164,-4.2226,-4.2339,-4.2196,-4.2198,-4.222,-4.2486,-4.2501,-4.2523,-4.2333,-4.2337,-4.234,-4.248,0,-4.1467,-4.1626,-4.1647,-4.1788,-4.1866,-4.1863,-4.1942,-4.2,-4.203,-4.2101,-4.2135,-4.2216,-4.2183,-4.2213,-4.2274,-4.2312,-4.2392,-4.2302,-4.2404,-4.2408,-4.2385,-4.2547,-4.2563,-4.2692,-4.2498,-4.2502,-4.2504,0,-4.1637,-4.1707,-4.1856,-4.1927,-4.1961,-4.2031,-4.2111,-4.2179,-4.2246,-4.2264,-4.232,-4.2325,-4.242,-4.2368,-4.2499,-4.2438,-4.2482,-4.2507,-4.2513,-4.2521,-4.246,-4.2559,-4.2734,-4.2753,-4.2533,-4.2531,-4.2528,0,-4.1725,-4.1857,-4.1963,-4.1999,-4.2085,-4.2135,-4.2173,-4.2236,-4.2287,-4.2358,-4.2391,-4.2472,-4.2516,-4.258,-4.2607,-4.2566,-4.2738,-4.2687,-4.2755,-4.2755,-4.2789,-4.2786,-4.2972,-4.2821,-4.282,-4.282,-4.282,0,-4.1865,-4.1956,-4.2004,-4.2069,-4.2172,-4.2198,-4.2299,-4.2336,-4.2393,-4.2466,-4.247,-4.2538,-4.2571,-4.2646,-4.2668,-4.2774,-4.2795,-4.2812,-4.2817,-4.2811,-4.2808,-4.2838,-4.2829,-4.2825,-4.2824,-4.2823,-4.2822,0,-4.1979,-4.2015,-4.2131,-4.2204,-4.2224,-4.2297,-4.236,-4.2424,-4.2456,-4.2548,-4.2572,-4.2621,-4.271,-4.2744,-4.2852,-4.2867,-4.2989,-4.2988,-4.2966,-4.2967,-4.3033,-4.3026,-4.3243,-4.3273,-4.3103,-4.3105,-4.3106,0,-4.2064,-4.2134,-4.2216,-4.2265,-4.2305,-4.2385,-4.2437,-4.2466,-4.252,-4.2604,-4.2659,-4.2747,-4.2818,-4.296,-4.3006,-4.3089,-4.3088,-4.3159,-4.31,-4.3093,-4.3088,-4.3083,-4.309,-4.3169,-4.317,-4.3172,-4.3173,0,-4.2213,-4.2228,-4.2302,-4.2385,-4.2447,-4.2513,-4.2577,-4.2618,-4.2657,-4.2718,-4.2809,-4.2865,-4.2976,-4.3064,-4.315,-4.3191,-4.3189,-4.3192,-4.3212,-4.3205,-4.319,-4.3198,-4.2994,-4.3186,-4.3184,-4.3183,-4.3183,-4.3182,-4.2314,-4.2377,-4.2445,-4.2529,-4.2581,-4.2642,-4.2706,-4.2747,-4.2823,-4.2915,-4.2929,-4.3026,-4.3095,-4.321,-4.3255,-4.3332,-4.3314,-4.3343,-4.335,-4.3356,-4.336,-4.318,-4.3348,-4.3348,-4.3348,-4.3347,-4.3347,0,-4.2462,-4.2506,-4.2583,-4.2674,-4.2741,-4.2735,-4.2807,-4.2863,-4.2949,-4.3013,-4.3084,-4.319,-4.3276,-4.3331,-4.3418,-4.3469,-4.3471,-4.3491,-4.3486,-4.3496,-4.3372,-4.3345,-4.3488,-4.3488,-4.3488,-4.3488,-4.3488,-4.3488,-4.2546,-4.2652,-4.2676,-4.281,-4.2854,-4.2949,-4.2991,-4.3048,-4.3099,-4.3217,-4.3289,-4.3324,-4.3385,-4.3478,-4.3557,-4.3571,-4.3603,-4.3624,-4.3637,-4.3519,-4.3504,-4.349,-4.3465,-4.3631,-4.3631,-4.3754,-4.3755,-4.3756]},{"header":{"parameterUnit":"m.s-1","parameterCategory":1,"la1":30.2991,"la2":30.254,"lo1":-89.0895,"lo2":-89.0444,"dy":0.0017,"dx":0.0017,"nx":28,"ny":28,"refTime":"2025-01-17T09:00:00:Z","depth":0,"parameterNumber":3,"parameterNumberName":"V-component_of_WINDS"},"data":[0,0,0,0,0,0,0,0,0,0,0,0,0,0,0,0,0,0,0,0,0,0,0,0,0,0,0,0,0,0,0,0,0,0,0,0,0,0,0,0,0,0,0,0,0,0,0,0,0,0,0,0,0,0,0,0,0,0,2.1822,2.1822,0,2.1848,2.1849,2.1849,2.1886,2.1887,2.1887,2.1888,2.1913,2.1914,2.1914,0,0,0,0,0,0,0,0,0,0,0,0,0,2.1801,2.1802,2.1822,2.1822,2.1822,2.1848,2.1849,2.1849,2.1886,2.1887,2.1888,2.1888,2.1913,2.1914,2.1914,0,0,0,0,0,0,0,0,0,0,0,0,0,2.1817,2.1802,2.1821,2.1844,2.1846,2.1848,2.1849,2.1849,2.1886,2.1887,2.1888,2.1889,2.1913,2.1914,2.1914,2.1895,0,0,2.1914,2.1914,0,0,0,0,0,0,0,0,2.1816,2.1818,2.184,2.1842,2.1845,2.1865,2.1851,2.1865,2.1886,2.1871,2.1888,2.1889,2.1896,2.1898,2.1901,2.1897,2.1898,2.1914,2.1914,2.1914,2.1914,0,0,0,0,0,0,0,2.1815,2.1817,2.1832,2.1841,2.1843,2.1852,2.1856,2.1854,2.1878,2.1872,2.1875,2.1878,2.1898,2.1901,2.1902,2.1898,2.1914,2.1914,2.1914,2.1914,2.1882,2.1881,0,0,0,0,0,0,2.1811,2.1816,2.1831,2.1833,2.1833,2.1852,2.1856,2.1858,2.1878,2.1882,2.1877,2.1879,2.19,2.1902,2.1903,2.1884,2.1914,2.1914,2.1914,2.1882,2.1881,2.188,0,0,0,0,0,0,2.181,2.1812,2.183,2.1825,2.1828,2.1851,2.1853,2.1858,2.186,2.1882,2.1886,2.1875,2.1901,2.1903,2.1897,2.1885,2.1914,2.1914,2.1884,2.1882,2.1881,2.1845,0,0,0,0,0,0,2.181,2.1812,2.1805,2.1825,2.1828,2.1825,2.1852,2.1857,2.1861,2.1864,2.1881,2.1885,2.1902,2.1897,2.1898,2.1886,2.1915,2.1885,2.1883,2.1881,2.1848,2.1843,2.1839,0,0,0,0,0,2.1809,2.1793,2.1804,2.1806,2.1821,2.1824,2.1826,2.1846,2.186,2.1853,2.1867,2.1885,2.1886,2.1896,2.1897,2.1885,2.1886,2.1883,2.1881,2.185,2.1844,2.1839,0,0,0,0,0,0,2.177,2.1796,2.1809,2.1799,2.1809,2.183,2.1823,2.1839,2.1844,2.1847,2.1871,2.1875,2.1867,2.1875,2.1886,2.1869,2.1889,2.1887,2.1864,2.1859,2.1854,2.1853,2.1915,0,0,0,0,0,2.1761,2.1762,2.1784,2.1773,2.1778,2.1799,2.1801,2.1816,2.1827,2.1831,2.1844,2.1854,2.1857,2.1858,2.1862,2.1849,2.1854,2.1841,2.1837,2.1833,2.1831,2.1826,2.1821,2.1873,2.1873,2.1873,0,0,2.1741,2.1755,2.1754,2.1766,2.1775,2.1776,2.1802,2.1801,2.1802,2.1831,2.1827,2.1837,2.1849,2.1841,2.1837,2.1848,2.1818,2.183,2.1827,2.1827,2.1823,2.1818,2.1814,2.1872,2.1872,2.1872,0,0,2.1705,2.1715,2.1709,2.1718,2.1732,2.1747,2.1745,2.1764,2.1772,2.1769,2.1791,2.1792,2.1796,2.1804,2.1809,2.1778,2.1794,2.1778,2.1755,2.1749,2.1745,2.1742,2.1732,2.1727,2.1776,2.1776,2.1776,0,2.1678,2.168,2.1703,2.1701,2.1706,2.1733,2.1726,2.1734,2.1748,2.1751,2.1762,2.1769,2.1779,2.1773,2.1766,2.1768,2.1767,2.1776,2.1744,2.1741,2.1738,2.1728,2.1724,2.1774,2.1774,2.1774,2.1775,0,2.1647,2.1648,2.1641,2.1655,2.1659,2.1655,2.1676,2.1678,2.1692,2.1706,2.1703,2.1716,2.1723,2.1723,2.1736,2.1719,2.1725,2.174,2.176,2.1731,2.1722,2.1719,2.1771,2.1772,2.1772,2.1773,0,0,2.1588,2.1616,2.1613,2.162,2.1639,2.164,2.1636,2.1645,2.1646,2.1655,2.1653,2.1657,2.1671,2.1676,2.1691,2.1686,2.1662,2.1702,2.1703,2.1695,2.1645,2.1634,2.163,2.1673,2.1672,2.1672,2.1644,0,2.1556,2.1553,2.1574,2.1565,2.1567,2.1593,2.1591,2.1602,2.1614,2.1617,2.1631,2.1633,2.1651,2.1655,2.1652,2.1666,2.1652,2.1668,2.1672,2.1672,2.1669,2.1625,2.1613,2.1587,2.1641,2.164,2.164,0,2.1519,2.1527,2.1519,2.1539,2.1541,2.1538,2.1548,2.155,2.1563,2.1573,2.158,2.1597,2.1595,2.1614,2.1613,2.1623,2.1625,2.1633,2.1632,2.1634,2.1654,2.1626,2.1578,2.1575,2.1635,2.1635,2.1635,0,2.1478,2.1487,2.1484,2.1489,2.1512,2.151,2.1519,2.1533,2.1537,2.1545,2.1549,2.1556,2.156,2.1566,2.1585,2.1597,2.1581,2.1601,2.1589,2.1589,2.1585,2.1585,2.1538,2.1586,2.1586,2.1586,2.1586,0,2.1441,2.1435,2.1466,2.1464,2.1458,2.1482,2.1476,2.1487,2.15,2.1501,2.1523,2.1523,2.1549,2.1551,2.1566,2.1563,2.1564,2.1572,2.1576,2.1571,2.157,2.1573,2.1576,2.1585,2.1585,2.1585,2.1585,0,2.1394,2.1414,2.1412,2.1435,2.144,2.1435,2.1454,2.1453,2.1468,2.1468,2.147,2.1492,2.1497,2.1517,2.1525,2.1535,2.1528,2.1535,2.1524,2.1526,2.1514,2.1515,2.1468,2.1463,2.1512,2.1512,2.1512,0,2.1369,2.1366,2.1388,2.1391,2.1399,2.1403,2.1408,2.1431,2.1435,2.145,2.1447,2.1454,2.1461,2.1467,2.1484,2.1491,2.1499,2.1482,2.1501,2.1495,2.15,2.1501,2.1501,2.1478,2.1478,2.1477,2.1477,0,2.1324,2.1335,2.1341,2.1351,2.1356,2.1365,2.1375,2.1375,2.1401,2.1404,2.141,2.1415,2.1425,2.1432,2.1442,2.1451,2.1468,2.1471,2.1469,2.1463,2.1457,2.1461,2.1514,2.1472,2.1473,2.1473,2.1473,2.1473,2.1289,2.1287,2.1303,2.1309,2.132,2.1329,2.1329,2.1344,2.135,2.136,2.1373,2.1378,2.1391,2.1407,2.1415,2.1419,2.1428,2.1425,2.1424,2.1423,2.1421,2.1456,2.142,2.1421,2.1421,2.1421,2.1421,0,2.1246,2.1257,2.1263,2.1277,2.1282,2.1298,2.1311,2.1314,2.1317,2.1329,2.1336,2.1343,2.1349,2.1367,2.1375,2.1375,2.1383,2.1376,2.1377,2.1379,2.1411,2.1413,2.137,2.137,2.137,2.137,2.137,2.137,2.1224,2.1223,2.1235,2.124,2.1251,2.1256,2.1262,2.1271,2.128,2.1287,2.1293,2.1305,2.1319,2.1329,2.1336,2.1341,2.1343,2.1334,2.1342,2.1372,2.1377,2.1381,2.1383,2.1335,2.1334,2.131,2.131,2.1309]}]]